Theta_e
323 324 325 327 329 329 330 330 327 324 326 326 327 328 327 327 327 327 327 327 327 325 324 325 328 328 326 329 329 328 327 327 328 328 326 326 326 325 321 322 324 316 313
322 323 323 327 328 329 330 332 329 327 324 326 327 327 328 329 327 328 328 327 327 327 325 325 328 329 328 328 328 327 328 327 326 324 325 325 323 320 314 320 323 320 320
319 323 323 326 327 328 327 323 331 330 329 326 326 327 327 329 329 330 329 329 329 329 328 328 329 328 328 327 327 326 327 327 327 324 325 323 322 324 320 323 325 323 323
318 321 324 324 326 328 326 324 329 331 329 329 326 323 327 328 332 332 332 331 330 329 329 328 328 327 328 327 328 326 324 325 326 323 322 322 323 323 325 324 319 318 319
318 319 323 323 324 329 327 326 324 325 327 328 329 324 324 328 330 331 332 332 331 329 327 329 329 329 329 328 325 321 321 322 322 322 321 321 321 323 320 323 323 322 321
318 318 321 322 322 326 327 326 325 323 322 323 324 323 320 318 324 325 327 329 330 330 331 330 330 328 327 317 318 317 320 321 322 321 322 322 322 322 323 323 322 322 322
319 318 318 321 322 323 324 323 323 323 323 323 322 322 318 318 317 317 319 323 324 318 317 317 319 315 314 315 318 317 318 321 324 324 324 323 324 325 323 323 320 322 321
320 319 317 318 321 322 322 323 324 324 322 322 321 320 319 318 319 320 325 325 322 323 321 320 318 316 318 317 316 316 316 317 317 318 317 320 319 316 318 314 316 315 316
320 320 318 316 319 322 323 324 326 326 326 325 323 322 320 312 314 316 319 322 323 323 322 323 322 317 313 315 320 320 318 313 312 313 314 314 314 313 313 313 317 320 320
320 320 319 317 318 320 321 324 325 326 326 324 324 322 320 309 310 310 314 317 313 315 312 309 310 311 309 312 319 316 317 315 314 314 314 314 314 314 313 311 309 310 312
320 320 320 318 318 319 320 322 323 323 322 323 322 322 321 319 307 307 310 313 314 313 311 308 310 312 313 315 316 315 318 315 314 313 313 313 313 313 313 312 312 310 307
320 320 320 320 318 319 320 322 323 321 321 322 322 321 320 315 306 305 309 312 312 313 314 314 315 315 315 315 314 314 313 312 311 311 315 317 317 316 316 314 313 312 312
321 320 321 321 318 320 323 324 322 320 321 321 320 319 318 317 307 306 307 313 313 316 317 316 316 315 314 313 312 310 309 309 310 312 317 320 320 318 316 315 315 314 317
322 321 321 322 319 320 322 323 321 321 320 318 318 318 317 317 317 310 312 314 314 318 318 317 313 312 311 310 310 311 311 311 312 317 319 320 319 319 319 318 316 313 310
322 322 321 322 320 319 321 321 320 320 319 319 318 318 318 317 318 315 315 315 315 315 313 311 311 311 314 316 317 316 318 319 320 321 321 320 320 318 313 310 308 308 309
323 322 322 322 322 319 320 320 319 319 318 318 318 318 319 319 318 317 316 314 314 311 311 314 318 320 320 320 320 321 322 321 321 317 314 312 310 310 309 307 307 306 306
324 323 323 323 323 320 319 319 319 317 318 316 318 318 318 318 318 317 315 313 312 314 315 317 320 321 321 320 322 324 323 317 319 313 310 309 309 309 305 303 305 305 305
325 324 323 323 322 322 320 319 318 318 317 316 315 317 317 317 316 317 316 314 314 314 314 318 321 320 321 324 322 319 316 314 311 312 314 311 302 301 304 304 303 303 302
327 325 323 324 323 323 322 321 319 319 318 317 316 312 314 317 318 316 315 313 314 317 318 320 321 323 321 319 316 316 314 312 313 305 299 302 303 303 302 302 302 302 302
327 327 325 323 323 322 323 322 321 320 319 318 316 314 311 312 312 312 312 312 316 322 321 323 321 317 314 314 312 313 310 299 301 302 300 297 300 302 302 302 302 301 301
329 328 327 325 324 324 323 323 323 322 321 320 320 318 316 312 312 312 314 320 324 324 322 316 313 316 313 313 307 299 298 297 297 296 296 298 301 299 300 301 300 300 299
329 329 328 327 326 324 325 324 324 323 323 322 322 323 324 322 323 324 324 324 321 316 312 312 313 313 306 301 299 298 298 296 295 295 299 299 298 298 299 300 299 298 298
329 329 329 327 326 326 325 325 324 324 324 323 324 323 323 325 324 321 315 312 313 312 313 312 308 301 298 301 307 301 296 295 294 294 295 297 299 299 299 298 298 298 297
329 328 328 328 327 326 326 325 325 324 324 325 324 323 323 320 316 312 312 311 310 307 305 300 297 299 304 301 297 295 295 294 294 294 297 298 298 298 298 297 296 296 296
328 329 328 328 328 326 326 326 325 325 325 325 321 320 317 315 314 313 309 306 308 304 302 305 305 301 298 295 294 294 294 294 293 293 296 298 297 297 296 295 294 294 294
327 328 328 328 327 326 326 325 326 325 322 320 319 317 315 314 311 310 311 306 305 305 305 303 298 295 294 294 294 294 294 294 293 293 293 296 296 295 292 291 292 291 291
Wind_Speed
6 5 6 7 8 9 10 11 12 14 13 15 11 13 17 20 23 24 22 20 18 19 19 14 10 15 22 23 29 26 15 18 10 17 11 16 15 13 12 12 12 10 11
8 7 7 8 8 10 12 13 15 17 16 12 13 16 18 20 20 20 18 16 19 19 17 17 16 19 25 26 29 20 13 10 9 17 14 15 15 14 11 11 7 7 11
10 9 9 10 8 10 15 14 13 13 19 21 23 21 17 14 18 15 19 19 20 21 21 19 22 27 31 20 24 16 12 13 14 14 12 11 11 10 10 10 13 14 14
11 11 11 12 10 11 12 14 14 14 13 19 21 23 22 18 16 17 18 20 22 21 23 21 22 25 21 19 18 17 14 14 14 13 13 12 9 10 10 10 12 16 15
13 13 13 14 12 12 12 13 14 14 14 14 15 18 17 19 14 18 17 19 20 20 20 17 16 16 16 17 16 17 19 14 15 12 12 11 11 11 14 11 12 12 15
14 14 14 14 14 13 12 13 14 14 13 14 14 12 13 21 21 20 18 20 19 22 22 19 18 19 21 18 18 15 18 14 13 12 9 9 9 12 9 11 12 13 15
15 14 16 16 16 15 14 14 13 14 13 12 12 12 18 18 18 18 18 19 18 18 20 20 15 17 16 14 13 14 17 17 13 11 8 7 7 10 12 14 15 16 19
17 16 17 18 17 17 16 14 14 13 14 13 11 11 13 16 16 18 17 15 16 14 14 13 11 14 13 14 14 14 13 12 11 9 11 9 8 10 12 12 16 21 22
19 18 17 19 19 18 17 17 15 14 14 13 11 10 9 15 15 15 14 13 13 12 12 12 12 14 15 15 11 11 10 10 9 7 3 4 7 11 14 18 17 17 21
21 20 18 19 20 20 19 18 16 15 14 13 11 10 10 13 15 16 15 9 13 12 14 14 15 14 16 17 13 12 9 6 3 3 7 11 14 18 21 23 23 23 22
22 20 20 19 20 21 21 19 18 16 14 15 13 12 11 10 17 19 19 14 13 12 12 17 17 17 16 13 10 9 7 6 6 9 13 16 17 17 18 19 22 23 23
24 22 21 20 20 21 23 21 18 18 17 16 15 13 13 15 19 21 22 18 17 12 11 13 15 12 10 9 8 6 6 8 11 11 11 12 13 13 13 13 14 22 23
26 25 23 22 20 21 23 21 20 21 18 17 16 15 15 16 20 23 24 22 22 16 13 14 13 12 10 9 8 8 11 14 15 12 10 11 11 12 19 21 16 21 26
28 27 26 24 23 21 20 20 19 20 20 18 18 18 17 18 18 25 26 23 23 20 19 14 11 10 10 11 13 13 15 16 10 8 9 9 9 10 12 16 25 26 24
32 30 29 26 26 24 23 22 21 20 21 20 20 19 21 22 22 25 26 25 23 20 14 11 12 12 11 11 11 10 7 5 5 5 7 10 13 13 13 14 19 22 22
35 34 32 29 27 24 23 21 22 20 23 23 21 20 19 21 22 24 24 24 20 16 15 12 11 10 10 9 10 9 8 9 7 2 3 6 6 9 14 16 14 15 19
39 36 32 30 28 29 26 25 24 28 24 28 28 26 21 26 22 25 24 20 17 15 13 11 12 13 12 9 8 7 12 10 10 3 1 7 12 16 16 16 14 15 17
39 37 34 34 30 29 29 28 26 25 28 30 33 32 29 23 26 24 22 20 18 17 16 14 14 11 10 9 12 16 14 5 4 2 14 18 12 11 12 12 13 15 17
38 39 38 32 33 30 29 28 27 26 25 26 26 37 35 31 27 26 25 21 16 14 12 12 12 13 14 17 13 9 9 6 7 7 6 9 7 7 9 11 14 17 18
37 38 37 37 31 34 31 30 28 28 28 27 32 31 39 39 37 34 30 27 20 17 15 15 14 14 13 12 13 8 2 6 7 6 5 6 7 8 9 12 13 15 16
31 33 39 36 35 31 33 31 30 27 27 27 30 32 29 36 38 33 28 20 20 21 19 17 17 19 18 14 12 9 8 7 4 4 5 6 7 9 11 11 13 14 16
26 27 31 42 37 35 32 33 29 29 26 25 23 29 25 22 20 20 20 21 20 22 21 25 23 18 19 16 15 15 6 6 5 4 6 3 7 10 10 11 13 15 16
22 24 27 31 39 36 32 31 33 29 27 26 24 27 29 22 22 24 25 25 25 23 24 21 21 21 19 14 5 11 13 9 6 4 4 5 7 10 9 12 14 17 19
20 21 22 25 29 32 33 31 34 30 25 31 30 25 25 27 29 25 22 22 24 24 23 23 22 16 11 13 16 14 12 9 6 3 3 4 5 9 11 14 16 18 20
19 19 19 21 20 29 30 26 27 26 29 30 32 32 31 30 29 30 29 28 29 29 25 20 14 17 24 20 15 13 10 7 3 2 3 3 7 10 11 15 16 19 19
14 15 17 18 18 20 24 26 26 24 25 30 34 36 33 32 33 34 35 37 33 25 22 21 24 23 20 20 16 12 8 4 2 4 5 6 8 10 15 16 16 20 20
Wind_Direction
153 136 123 102 97 92 80 75 92 74 93 111 123 114 123 124 133 137 137 138 148 160 164 165 214 155 165 162 166 156 156 179 171 164 198 189 188 165 189 163 208 216 221
162 151 132 119 111 103 95 93 94 90 91 108 127 123 123 118 132 137 138 147 143 133 148 169 172 172 164 165 163 156 161 171 163 160 182 185 177 171 196 169 206 223 247
167 161 139 132 120 120 108 108 100 91 92 99 107 117 134 123 122 126 124 130 137 141 145 147 167 153 154 160 172 159 166 173 182 172 175 172 169 175 186 195 207 209 218
173 166 150 142 130 127 117 107 110 111 95 100 102 100 107 114 120 122 123 124 124 128 137 142 141 152 159 156 166 174 172 168 168 169 165 169 181 198 200 216 237 241 243
176 171 162 152 142 137 132 126 118 116 118 113 109 102 97 100 102 115 121 124 128 130 131 131 140 155 158 155 177 160 163 156 162 161 169 180 191 209 219 226 241 254 270
177 174 170 160 156 151 146 138 131 129 125 121 115 118 128 119 128 122 119 123 131 139 148 153 155 162 154 157 160 161 144 161 158 165 174 191 204 224 233 230 248 248 253
178 176 174 170 167 162 154 149 143 142 144 140 134 127 132 135 134 130 129 125 119 126 130 127 132 144 150 155 154 152 163 165 168 174 166 195 216 237 231 248 247 251 266
182 180 177 177 175 170 167 163 161 154 151 148 144 144 155 152 147 142 135 139 139 142 143 134 164 162 164 170 170 174 181 188 197 198 213 217 228 226 256 269 264 278 279
187 186 183 179 181 178 177 176 171 167 165 162 161 160 165 175 175 170 150 150 153 154 155 163 166 175 174 166 161 166 173 182 187 191 207 254 267 275 277 280 276 273 275
191 189 186 183 183 184 184 184 180 178 176 174 176 177 185 190 188 181 169 162 178 172 179 174 163 161 156 155 154 152 152 167 182 247 272 281 281 276 273 273 271 268 273
191 190 188 186 186 186 187 190 187 184 189 180 186 188 189 193 187 183 167 159 173 167 168 161 158 155 153 154 153 159 176 210 251 276 283 285 290 293 295 293 287 284 280
191 190 190 189 183 188 188 189 190 185 190 190 193 194 195 194 187 181 171 164 171 159 161 165 165 167 172 183 198 210 239 262 273 274 277 284 286 289 290 269 269 293 297
192 191 190 190 185 191 187 189 187 190 191 194 196 195 194 195 192 184 181 176 168 154 183 191 185 193 209 223 238 257 266 270 273 278 288 293 296 284 277 286 285 292 306
193 192 191 192 186 192 190 192 188 193 191 194 195 194 191 192 191 187 186 184 184 185 191 196 203 222 244 262 273 269 262 263 271 281 290 299 306 302 284 283 306 316 307
193 194 193 195 193 198 192 196 193 203 193 194 195 194 191 193 195 197 194 195 199 202 204 224 240 251 259 264 261 251 267 292 305 261 251 263 265 289 311 344 350 347 334
194 195 197 195 199 199 199 201 201 206 204 191 199 198 203 203 205 208 206 213 216 211 212 217 224 234 240 241 235 231 212 221 213 272 300 317 345 342 333 336 344 324 322
197 198 200 198 201 199 203 202 205 203 214 202 198 200 208 206 208 211 217 221 212 211 220 231 230 236 233 220 209 205 206 204 259 260 58 351 343 341 331 336 339 337 328
200 201 201 203 205 205 206 207 208 209 210 211 207 206 209 208 211 209 206 206 216 227 234 238 230 212 193 190 183 196 200 229 148 328 318 318 332 359 350 337 338 334 333
203 202 205 208 208 210 210 212 212 212 213 212 212 212 209 210 209 212 219 226 226 232 228 207 197 189 185 190 200 189 174 181 305 332 38 35 4 353 345 345 347 344 337
207 209 208 209 210 212 212 212 214 214 212 208 212 220 219 216 220 225 226 232 224 214 199 184 172 163 167 158 157 159 209 102 72 63 33 23 7 5 354 350 347 340 338
211 213 210 214 214 213 215 215 213 213 215 216 208 210 227 222 225 227 224 199 190 183 174 170 161 169 160 165 146 120 115 101 105 52 56 23 11 356 356 346 346 341 335
207 214 215 212 216 217 214 214 214 207 207 217 214 208 204 187 191 187 183 175 168 171 162 168 160 160 152 145 129 127 138 141 120 100 64 359 360 350 354 339 341 337 335
209 212 215 215 215 217 219 213 212 214 197 199 210 194 178 179 175 173 164 166 174 169 161 158 154 145 141 133 172 179 157 153 131 95 66 20 18 334 343 334 341 339 333
216 215 214 213 214 215 214 211 207 202 211 198 195 168 170 168 165 160 163 152 146 142 142 146 149 146 149 157 159 165 157 140 114 75 71 17 359 337 340 335 340 334 333
223 216 215 211 213 211 209 208 202 195 201 183 158 166 163 160 157 153 153 154 157 153 152 149 151 162 156 163 164 155 145 136 122 66 89 11 346 346 342 334 338 337 337
221 206 209 207 212 203 198 197 193 181 171 164 165 164 162 171 168 174 166 160 159 157 155 157 166 168 168 159 158 156 151 133 81 44 56 45 355 347 337 352 344 343 340